カタログに戻る

THORAD DELTA 1 DEB

運用中SSO
NORAD 42614·DEBRIS·🇺🇸 United States

打ち上げ Nov 15, 1974 から Vandenberg Space Force Base

Loading…

次のパス (今後24時間)

TLE

最新Source: Space-Track

元期: Sep 13, 2026, 04:38 UTC

1 42614U 74089GF  26256.19344670  .00000270  00000-0  18209-2 0  9991
2 42614 101.8981  57.3937 0036255 353.2109 179.9184 12.59958996547069

AllMySatでTHORAD DELTA 1 DEBをリアルタイム追跡

Download on the App Store